Regional Weather Roundup
Issued by NWS

Home | Current Version | Previous Version | Graphics & Text | Print | Product List | Glossary On
Versions: 1 2 3 4 5 6 7 8 9 10 11 12 13 14 15 16 17 18 19 20 21 22 23 24 25 26 27 28 29 30 31 32 33 34 35 36 37 38 39 40 41 42 43 44 45 46 47 48 49 50
000
ASUS43 KMPX 171101
RWRMN
WEATHER ROUNDUP FOR MINNESOTA
NATIONAL WEATHER SERVICE TWIN CITIES/CHANHASSEN MN
500 AM CST SUN DEC 17 2017


NOTE: "FAIR" INDICATES FEW OR NO CLOUDS BELOW 12,000 FEET WITH NO
SIGNIFICANT WEATHER AND/OR OBSTRUCTIONS TO VISIBILITY. N/A MEANS
CURRENT SKY AND/OR WEATHER CONDITIONS ARE NOT AVAILABLE.

MNZ060>063-068>070-171200-
   Twin Cities Metro

CITY           SKY/WX    TMP DP  RH WIND       PRES   REMARKS
TWIN CITIES    CLOUDY    22  19  89 NE5       30.10F WCI  16
ST PAUL        CLOUDY    21  19  92 E3        30.11F
CRYSTAL        CLOUDY    21  15  78 NE5       30.09F WCI  15
BLAINE         CLOUDY    21  19  93 CALM      30.09F
LAKEVILLE      MOCLDY    19  19 100 CALM      30.09S
EDEN PRAIRIE   CLOUDY    23  17  78 NE6       30.08F WCI  16
SOUTH ST PAUL  CLOUDY    21  20  96 CALM      30.10F FOG
LAKE ELMO      CLOUDY    21  21 100 CALM      30.11F FOG
$$
MNZ001>005-007-008-013>017-022>024-027-028-171200-
   Northwest Minnesota

CITY           SKY/WX    TMP DP  RH WIND       PRES   REMARKS
BEMIDJI        CLOUDY    22  21  96 S6        30.02S FOG     WCI  14
HALLOCK        CLEAR     12   9  85 S7        29.98F WCI   2
ROSEAU         CLOUDY    18  12  79 S8        29.97S WCI   7
WARROAD        CLOUDY    21  18  86 SW8       29.96F WCI  12
THIEF RVR FALL CLOUDY    21  21 100 S10       30.01F FOG     WCI  10
CROOKSTON      CLEAR     16  16 100 S5        30.03F FOG     WCI   9
FOSSTON        FOG       21  21 100 S9        30.02S VSB 1/2 WCI  11
DETROIT LAKES  FOG       25  23  93 SE3       30.05S VSB 3/4
MOORHEAD       CLOUDY    21  21 100 CALM      30.06S FOG
PARK RAPIDS    CLOUDY    24  21  88 SW6       30.04R FOG     WCI  17
MAHNOMEN       CLOUDY    24  23  96 S7        30.03R FOG     WCI  16
$$
MNZ006-009>011-018-025>026-171200-
   North Central Minnesota

CITY           SKY/WX    TMP DP  RH WIND       PRES   REMARKS
BAUDETTE       CLOUDY    22  21  96 S8        29.97F WCI  12
FLAG ISLAND    CLOUDY    18  16  93 S6        29.95F WCI   9
INTL FALLS     CLOUDY    22  20  92 S3        30.00F
WASKISH        CLOUDY    23  21  93 CALM      30.01S
BIG FORK       CLOUDY    23  21  93 S5        30.03R WCI  17
LONGVILLE      CLOUDY    25  23  93 S3        30.06R
GRAND RAPIDS   CLOUDY    21  20  96 S6        30.07R WCI  13
CRANE LAKE     CLOUDY    19  18  93 CALM      30.06F
ORR            CLOUDY    19  18  93 S3        30.01F
COOK           CLOUDY    19  19 100 SW3       30.04F
WALKER         CLOUDY    23  22  96 S5        30.04R FOG     WCI  17
$$
MNZ012-019>021-037-171200-
   Northeast Minnesota

CITY           SKY/WX    TMP DP  RH WIND       PRES   REMARKS
DULUTH         CLOUDY    19  18  95 S6        30.07R WCI  11
ELY            CLOUDY    19  18  93 CALM      30.04S
HIBBING        CLOUDY    19  18  95 S5        30.05S FOG     WCI  12
EVELETH        CLOUDY    19  16  88 S3        30.05S FOG
DULUTH HARBOR  CLOUDY    23  18  80 SW3       30.14S
TWO HARBORS    CLOUDY    25  19  80 CALM      30.08R
SILVER BAY     CLOUDY    21  19  93 CALM      30.07S
GRAND MARAIS     N/A     30  25  81 SW14      30.10S WCI  19
G MARAIS ARPRT CLOUDY    21  18  86 S3        30.03R FOG
$$
MNZ029>031-032-039>041-046>048-054>057-064-171200-
   West Central Minnesota

CITY           SKY/WX    TMP DP  RH WIND       PRES   REMARKS
FERGUS FALLS   FOG       25  25 100 SE3       30.09F VSB 1/4
WHEATON        FOG       23  21  93 SE6       30.09S VSB 1/4 WCI  16
MORRIS         CLOUDY    27  27 100 CALM      30.06F FOG
ALEXANDRIA     CLOUDY    27  25  92 CALM      30.07S
ELBOW LAKE     FAIR      24  23  99 CALM      30.07S FOG
WADENA         CLOUDY    25  25 100 CALM      30.06F FOG
GLENWOOD       CLOUDY    27  27 100 CALM      30.06F FOG
APPLETON       CLOUDY    28  27  93 CALM      30.08S FOG
BENSON         CLOUDY    28  27  93 CALM      30.09S FOG
ORTONVILLE     FOG       27  25  93 CALM      30.06F VSB 3/4
MADISON        CLOUDY    27  27 100 CALM      30.08R FOG
WILLMAR        CLOUDY    27  25  93 E3        30.08S FOG
$$
MNZ033>034-036-042>043-049>051-058-059-171200-
   Central Minnesota

CITY           SKY/WX    TMP DP  RH WIND       PRES   REMARKS
ST CLOUD       CLOUDY    20  17  88 CALM      30.09S
SAUK CENTRE    CLOUDY    25  24  97 N3        30.07F FOG
PAYNESVILLE    CLOUDY    24  24 100 NE3       30.08F FOG
AITKIN         CLOUDY    21  19  93 S3        30.08S FOG
PINE RIVER     CLOUDY    21  21 100 S5        30.10S FOG     WCI  15
BRAINERD       CLOUDY    24  22  91 S3        30.09S FOG
STAPLES        CLOUDY    25  25 100 CALM      30.07F FOG
LONG PRAIRIE   CLOUDY    25  25 100 CALM      30.07F FOG
LITTLE FALLS   CLOUDY    23  19  86 CALM      30.09F FOG
LITCHFIELD     CLOUDY    25  25 100 NE3       30.08F
BUFFALO        CLOUDY    20  17  88 N5        30.09F WCI  14
MAPLE LAKE     CLOUDY    22  20  93 CALM      30.09F
HUTCHINSON     MOCLDY    24  22  89 N6        30.08S WCI  17
$$
MNZ037-044-045-052-053-171200-
   East Central Minnesota

CITY           SKY/WX    TMP DP  RH WIND       PRES   REMARKS
PRINCETON      CLOUDY    19  18  93 CALM      30.10S
MORA           CLOUDY    21  18  86 CALM      30.11F
CAMBRIDGE      CLOUDY    19  16  86 CALM      30.11S
RUSH CITY      CLOUDY    17  15  91 CALM      30.13R
MOOSE LAKE     CLOUDY    23  18  80 S5        30.09S WCI  17
HINCKLEY       CLOUDY    21  19  93 CALM      30.11F
CLOQUET        CLOUDY    19  18  93 S5        30.09R WCI  13
MCGREGOR       CLOUDY    23  21  93 S3        30.10R
$$
MNZ071>073-080-081-089-090-097-098-171200-
   Southwest Minnesota

CITY           SKY/WX    TMP DP  RH WIND       PRES   REMARKS
MONTEVIDEO     CLOUDY    27  27 100 E3        30.08S FOG
GRANITE FALLS  CLOUDY    26  25  94 NE5       30.08F FOG     WCI  21
CANBY          CLOUDY    27  26  97 CALM      30.07S FOG
MARSHALL       CLOUDY    25  24  96 N3        30.07S FOG
REDWOOD FALLS  CLOUDY    26  24  92 E3        30.08S FOG
OLIVIA         CLOUDY    27  23  86 NE5       30.06F FOG     WCI  21
PIPESTONE      PTCLDY    21  21 100 NE3       30.02F FOG
WINDOM         HAZE      25  16  68 N6        30.03F VSB 1/4 WCI  18
WORTHINGTON    SNOW      25  24  96 N10       30.02F VSB 1/4 WCI  15
JACKSON        SNOW      27  25  93 NE12      30.02F VSB 1/4 WCI  16
SLAYTON        FOG       25  25  98 NE3       30.04S VSB 1
$$
MNZ065>067-074>077-082>085-091>093-171200-
   South Central Minnesota

CITY           SKY/WX    TMP DP  RH WIND       PRES   REMARKS
MANKATO        PTCLDY    20  17  88 NE3       30.08S
NEW ULM        MOCLDY    25  19  80 NE3       30.06F
ST JAMES       CLOUDY    25  23  93 NE3       30.07F
FAIRMONT       CLOUDY    25  23  92 N12       30.05F FOG     WCI  14
GLENCOE        CLOUDY    24  24 100 CALM      30.07F
FARIBAULT      PTCLDY    19  18  93 CALM      30.07F
OWATONNA       FOG       21  19  93 NE6       30.05S VSB 1/2 WCI  14
WASECA         CLOUDY    19  18  93 NE8       30.07S WCI   9
ALBERT LEA     CLOUDY    19  18  93 NE6       30.04S FOG     WCI  11
$$
MNZ078>079-086>088-094>096-171200-
   Southeast Minnesota

CITY           SKY/WX    TMP DP  RH WIND       PRES   REMARKS
ROCHESTER      FOG       25  24  96 E7        30.05S VSB 1/4 WCI  17
RED WING       CLOUDY    25  21  86 CALM      30.09F FOG
STANTON        CLOUDY    23  21  91 NE5       30.07F FOG     WCI  17
DODGE CENTER   SNOW      23  21  93 E6        30.04S VSB 1/4 WCI  16
WINONA         CLOUDY    30  28  93 E5        30.10F WCI  25
AUSTIN         FOG       25  21  86 E7        30.03F VSB 3/4 WCI  17
PRESTON        FOG       25  24  95 NE5       30.04F VSB 1/2 WCI  19
$$
ABBREVIATIONS USED IN REMARKS
   TC - TEMPERATURES IN CELSIUS
  WCI - WIND CHILL INDEX
   HX - HEAT INDEX
  VSB - VISIBILITY
$$




USA.gov is the U.S. government's official web portal to all federal, state and local government web resources and services.